Location: Bacharowice
(49.9333°N, 19.5833°E)
Time: 23:47:36
(UTC+00:00)

Cosmos 1503 Rocket - Pass Details

Date: 11 May 2021
Orbit: 752 x 791 km, 74.0° (Epoch: 21 June)

Event Time Altitude Azimuth Distance (km) Brightness Sun altitude
Rises 19:02:34 0° 196° (SSW) 3,191 7.0 -7.1°
Reaches altitude 10° 19:04:55 10° 195° (SSW) 2,273 6.2 -7.4°
Maximum altitude 19:10:03 75° 111° (ESE) 788 3.9 -8.0°
Drops below altitude 10° 19:15:16 10° 27° (NNE) 2,307 6.7 -8.6°
Sets 19:17:40 0° 26° (NNE) 3,243 7.5 -8.9°
